AUA9HC LOWW-EKCH

Flight info

Callsign AUA9HC
Flight time N/A
Altitude 38000
Route LANUX2C/29 LANUX DCT VLM DCT HDO DCT BAKDO DCT KOSEB T298 MONAK
Aircraft A320/M-SDE3FGHIRWY/LB1

Departure

Time 2026-05-07 14:38
Airport Vienna International Airport (LOWW)

Arrival

Time N/A
Airport Copenhagen Kastrup Airport (EKCH)
Time Latitude Longitude Altitude Speed Heading
2026-05-07 14:05 48.11728 16.56737 610 ft 0 kts 26°
2026-05-07 14:30 48.11709 16.56723 623 ft 4 kts 30°
2026-05-07 14:30 48.11686 16.56701 620 ft 4 kts 39°
2026-05-07 14:30 48.11668 16.56673 625 ft 4 kts 71°
2026-05-07 14:31 48.11667 16.56648 625 ft 1 kts 116°
2026-05-07 14:31 48.11668 16.56644 625 ft 0 kts 116°
2026-05-07 14:33 48.11656 16.56682 614 ft 15 kts 116°
2026-05-07 14:34 48.11590 16.56885 612 ft 23 kts 116°
2026-05-07 14:34 48.11516 16.57110 613 ft 25 kts 116°
2026-05-07 14:34 48.11448 16.57322 621 ft 18 kts 116°
2026-05-07 14:34 48.11454 16.57439 619 ft 13 kts 36°
2026-05-07 14:35 48.11589 16.57437 614 ft 23 kts 344°
2026-05-07 14:35 48.11741 16.57371 618 ft 18 kts 344°
2026-05-07 14:35 48.11813 16.57416 617 ft 12 kts 73°
2026-05-07 14:35 48.11834 16.57529 622 ft 11 kts 75°
2026-05-07 14:36 48.11852 16.57630 620 ft 9 kts 75°
2026-05-07 14:36 48.11862 16.57720 617 ft 8 kts 91°
2026-05-07 14:36 48.11854 16.57798 610 ft 7 kts 102°
2026-05-07 14:36 48.11840 16.57862 620 ft 6 kts 122°
2026-05-07 14:37 48.11811 16.57890 615 ft 4 kts 163°
2026-05-07 14:37 48.11741 16.57921 622 ft 22 kts 163°
2026-05-07 14:37 48.11327 16.58090 621 ft 95 kts 164°
2026-05-07 14:38 48.10513 16.58436 616 ft 149 kts 165°
2026-05-07 14:38 48.09433 16.58959 950 ft 166 kts 165°
2026-05-07 14:38 48.08322 16.59442 1707 ft 166 kts 166°
2026-05-07 14:38 48.07175 16.59899 2239 ft 179 kts 166°
2026-05-07 14:39 48.05924 16.60527 2542 ft 202 kts 148°
2026-05-07 14:39 48.05080 16.62259 2931 ft 219 kts 102°
2026-05-07 14:39 48.05297 16.64485 3704 ft 224 kts 61°
2026-05-07 14:39 48.06307 16.66376 4207 ft 243 kts 46°
2026-05-07 14:40 48.07560 16.68178 4786 ft 260 kts 43°
2026-05-07 14:40 48.08932 16.70052 5467 ft 271 kts 43°
2026-05-07 14:40 48.09859 16.71320 6049 ft 275 kts 43°
2026-05-07 14:40 48.10478 16.72180 6438 ft 276 kts 44°
2026-05-07 14:41 48.11880 16.74178 7279 ft 281 kts 43°
2026-05-07 14:41 48.13470 16.75909 8063 ft 287 kts 23°
2026-05-07 14:41 48.15412 16.76570 8881 ft 289 kts 358°
2026-05-07 14:41 48.17368 16.75961 9744 ft 289 kts 333°
2026-05-07 14:42 48.18988 16.74199 10478 ft 292 kts 313°
2026-05-07 14:42 48.20438 16.71952 10754 ft 315 kts 311°
2026-05-07 14:42 48.21971 16.69508 11303 ft 327 kts 311°
2026-05-07 14:42 48.23537 16.66998 12046 ft 332 kts 311°
2026-05-07 14:43 48.25123 16.64458 12823 ft 336 kts 310°
2026-05-07 14:43 48.26734 16.61888 13587 ft 340 kts 310°
2026-05-07 14:43 48.28364 16.59300 14257 ft 344 kts 310°
2026-05-07 14:43 48.30019 16.56676 14888 ft 348 kts 310°
2026-05-07 14:44 48.31690 16.54018 15522 ft 352 kts 309°
2026-05-07 14:44 48.33380 16.51328 16159 ft 356 kts 309°
2026-05-07 14:44 48.35092 16.48601 16783 ft 360 kts 309°
2026-05-07 14:44 48.36821 16.45845 17065 ft 363 kts 309°
2026-05-07 14:45 48.38553 16.43087 17334 ft 364 kts 309°
2026-05-07 14:45 48.40296 16.40310 17600 ft 366 kts 309°
2026-05-07 14:45 48.42049 16.37513 17857 ft 368 kts 309°
2026-05-07 14:45 48.43801 16.34709 18138 ft 369 kts 309°
2026-05-07 14:46 48.45564 16.31885 18392 ft 371 kts 309°
2026-05-07 14:46 48.47333 16.29046 18623 ft 372 kts 309°
2026-05-07 14:46 48.49107 16.26194 18867 ft 373 kts 308°
2026-05-07 14:46 48.50888 16.23330 19109 ft 375 kts 308°
2026-05-07 14:47 48.52674 16.20453 19350 ft 377 kts 308°
2026-05-07 14:47 48.54469 16.17555 19601 ft 379 kts 308°
2026-05-07 14:47 48.56271 16.14644 19844 ft 380 kts 308°
2026-05-07 14:47 48.58080 16.11719 20096 ft 382 kts 308°
2026-05-07 14:48 48.59877 16.08818 20350 ft 384 kts 308°
2026-05-07 14:48 48.61702 16.05869 20600 ft 386 kts 308°
2026-05-07 14:48 48.63538 16.02901 20853 ft 387 kts 308°
2026-05-07 14:48 48.65380 15.99915 21115 ft 389 kts 308°
2026-05-07 14:49 48.67229 15.96911 21377 ft 391 kts 308°
2026-05-07 14:49 48.69087 15.93885 21648 ft 393 kts 308°
2026-05-07 14:49 48.70949 15.90849 21917 ft 395 kts 308°
2026-05-07 14:49 48.72824 15.87790 22187 ft 397 kts 307°
2026-05-07 14:50 48.74706 15.84718 22455 ft 399 kts 307°
2026-05-07 14:50 48.76597 15.81629 22737 ft 401 kts 307°
2026-05-07 14:50 48.78499 15.78518 23018 ft 403 kts 307°
2026-05-07 14:50 48.80410 15.75391 23297 ft 405 kts 307°
2026-05-07 14:51 48.82331 15.72244 23566 ft 407 kts 307°
2026-05-07 14:51 48.84256 15.69084 23807 ft 409 kts 307°
2026-05-07 14:51 48.86186 15.65906 24044 ft 410 kts 307°
2026-05-07 14:51 48.88277 15.62925 24282 ft 417 kts 316°
2026-05-07 14:52 48.90705 15.60451 24526 ft 424 kts 326°
2026-05-07 14:52 48.93390 15.58543 24764 ft 428 kts 332°
2026-05-07 14:52 48.96131 15.56745 25010 ft 429 kts 332°
2026-05-07 14:52 48.98839 15.54956 25253 ft 431 kts 332°
2026-05-07 14:53 49.01592 15.53128 25504 ft 432 kts 332°
2026-05-07 14:53 49.04354 15.51289 25756 ft 434 kts 332°
2026-05-07 14:53 49.07124 15.49441 26012 ft 435 kts 332°
2026-05-07 14:53 49.09905 15.47580 26271 ft 437 kts 332°
2026-05-07 14:54 49.12696 15.45712 26523 ft 439 kts 332°
2026-05-07 14:54 49.15497 15.43838 26774 ft 440 kts 332°
2026-05-07 14:54 49.18308 15.41955 27048 ft 442 kts 332°
2026-05-07 14:54 49.21133 15.40063 27318 ft 444 kts 332°
2026-05-07 14:55 49.23967 15.38162 27586 ft 446 kts 331°
2026-05-07 14:55 49.26811 15.36254 27860 ft 448 kts 331°
2026-05-07 14:55 49.29675 15.34335 28139 ft 450 kts 332°
2026-05-07 14:55 49.32547 15.32411 28423 ft 452 kts 331°
2026-05-07 14:56 49.35440 15.30470 28699 ft 455 kts 331°
2026-05-07 14:56 49.38343 15.28515 28978 ft 457 kts 331°
2026-05-07 14:56 49.41259 15.26543 29267 ft 459 kts 331°
2026-05-07 14:56 49.44188 15.24554 29563 ft 462 kts 331°
2026-05-07 14:57 49.47132 15.22554 29855 ft 464 kts 331°
2026-05-07 14:57 49.50097 15.20541 30131 ft 467 kts 331°
2026-05-07 14:57 49.53076 15.18520 30381 ft 469 kts 331°
2026-05-07 14:57 49.56067 15.16493 30630 ft 470 kts 331°
2026-05-07 14:58 49.59019 15.14484 30879 ft 471 kts 332°
2026-05-07 14:58 49.62019 15.12434 31128 ft 473 kts 332°
2026-05-07 14:58 49.65032 15.10375 31385 ft 474 kts 332°
2026-05-07 14:58 49.68048 15.08313 31641 ft 473 kts 332°
2026-05-07 14:59 49.71059 15.06266 31902 ft 473 kts 333°
2026-05-07 14:59 49.74107 15.04366 32156 ft 473 kts 335°
2026-05-07 14:59 49.77199 15.02618 32412 ft 473 kts 337°
2026-05-07 14:59 49.80309 15.00964 32686 ft 472 kts 338°
2026-05-07 15:00 49.83423 14.99339 32955 ft 471 kts 338°
2026-05-07 15:00 49.86524 14.97699 33222 ft 470 kts 338°
2026-05-07 15:00 49.89609 14.96029 33493 ft 469 kts 338°
2026-05-07 15:00 49.92679 14.94331 33772 ft 468 kts 337°
2026-05-07 15:01 49.95737 14.92615 34040 ft 467 kts 337°
2026-05-07 15:01 49.98788 14.90885 34253 ft 466 kts 337°
2026-05-07 15:01 50.01832 14.89150 34495 ft 466 kts 337°
2026-05-07 15:01 50.04875 14.87413 34736 ft 466 kts 337°
2026-05-07 15:02 50.07922 14.85685 34974 ft 465 kts 337°
2026-05-07 15:02 50.10966 14.83965 35223 ft 465 kts 337°
2026-05-07 15:02 50.14002 14.82252 35465 ft 465 kts 337°
2026-05-07 15:02 50.17044 14.80533 35708 ft 464 kts 337°
2026-05-07 15:03 50.20081 14.78817 35956 ft 464 kts 337°
2026-05-07 15:03 50.23118 14.77099 36206 ft 464 kts 337°
2026-05-07 15:03 50.25126 14.75960 36373 ft 464 kts 337°
2026-05-07 15:03 50.28156 14.74242 36626 ft 463 kts 337°
2026-05-07 15:04 50.32164 14.71961 36967 ft 462 kts 337°
2026-05-07 15:04 50.35184 14.70234 37223 ft 461 kts 337°
2026-05-07 15:04 50.38193 14.68511 37493 ft 460 kts 337°
2026-05-07 15:04 50.41196 14.66790 37758 ft 459 kts 336°
2026-05-07 15:05 50.44190 14.65074 37939 ft 460 kts 336°
2026-05-07 15:05 50.46223 14.63908 37984 ft 460 kts 337°
2026-05-07 15:05 50.52251 14.60522 37958 ft 461 kts 339°
2026-05-07 15:06 50.58353 14.57605 37978 ft 462 kts 341°
2026-05-07 15:06 50.64537 14.54874 37967 ft 461 kts 341°
2026-05-07 15:07 50.70705 14.52067 37986 ft 461 kts 341°
2026-05-07 15:07 50.76846 14.49163 37984 ft 461 kts 340°
2026-05-07 15:08 50.82991 14.46233 37997 ft 461 kts 340°
2026-05-07 15:08 50.89138 14.43317 38000 ft 461 kts 340°
2026-05-07 15:09 50.95286 14.40402 38006 ft 461 kts 340°
2026-05-07 15:09 51.01432 14.37469 38019 ft 461 kts 340°
2026-05-07 15:10 51.07582 14.34536 38017 ft 461 kts 340°
2026-05-07 15:10 51.13725 14.31596 38027 ft 461 kts 341°
2026-05-07 15:11 51.19864 14.28649 38030 ft 461 kts 341°
2026-05-07 15:11 51.25962 14.25715 38035 ft 461 kts 341°
2026-05-07 15:12 51.32098 14.22754 38036 ft 460 kts 341°
2026-05-07 15:12 51.38227 14.19785 38038 ft 460 kts 341°
2026-05-07 15:13 51.44360 14.16806 38041 ft 460 kts 341°
2026-05-07 15:13 51.50490 14.13824 38043 ft 460 kts 341°
2026-05-07 15:14 51.56621 14.10834 38047 ft 460 kts 341°
2026-05-07 15:14 51.62747 14.07833 38049 ft 460 kts 340°
2026-05-07 15:15 51.68872 14.04814 38052 ft 460 kts 340°
2026-05-07 15:15 51.74991 14.01795 38052 ft 460 kts 340°
2026-05-07 15:16 51.81109 13.98769 38059 ft 460 kts 340°
2026-05-07 15:16 51.87225 13.95737 38060 ft 459 kts 340°
2026-05-07 15:17 51.93336 13.92709 38068 ft 459 kts 341°
2026-05-07 15:17 51.99402 13.89702 38068 ft 459 kts 341°
2026-05-07 15:18 52.05416 13.86697 38069 ft 459 kts 340°
2026-05-07 15:18 52.11510 13.83641 38078 ft 458 kts 340°
2026-05-07 15:19 52.17607 13.80585 38090 ft 458 kts 340°
2026-05-07 15:19 52.23701 13.77517 38099 ft 458 kts 341°
2026-05-07 15:20 52.29786 13.74425 38099 ft 458 kts 340°
2026-05-07 15:20 52.35859 13.71343 38098 ft 456 kts 340°
2026-05-07 15:21 52.41920 13.68260 38099 ft 456 kts 340°
2026-05-07 15:21 52.47986 13.65168 38094 ft 456 kts 340°
2026-05-07 15:22 52.54051 13.62081 38091 ft 456 kts 340°
2026-05-07 15:22 52.60071 13.58992 38087 ft 456 kts 340°
2026-05-07 15:23 52.66128 13.55873 38081 ft 456 kts 340°
2026-05-07 15:23 52.72178 13.52749 38079 ft 456 kts 340°
2026-05-07 15:24 52.78226 13.49618 38084 ft 456 kts 340°
2026-05-07 15:24 52.84273 13.46486 38086 ft 455 kts 340°
2026-05-07 15:25 52.90319 13.43350 38085 ft 455 kts 340°
2026-05-07 15:25 52.96357 13.40200 38089 ft 455 kts 340°
2026-05-07 15:26 53.02391 13.37039 38092 ft 454 kts 340°
2026-05-07 15:26 53.08416 13.33852 38090 ft 455 kts 340°